Simultaneous Nadir Overpasses (SNOs) Predictions

Prediction of SNOs between METOP-B and NOAA-19 Satellite Orbit:

Table of predicted SNOs for the next 14.0 days since TLE Epoch: 10/20/2017
Index Date (METOP-B) Time (METOP-B) Lat,Lon (METOP-B) SZA (METOP-B ) Date (NOAA-19) Time (NOAA-19) Lat,Lon (NOAA-19) SZA (NOAA-19 ) Distance(km) Time Diff (sec)
1 10/21/2017 23:11:36 77.66,-161.22 88.83 10/21/2017 23:10:28 77.66,-161.33 88.81 2.55 68
2 10/22/2017 00:02:18 -77.63, 5.95 91.20 10/22/2017 00:01:29 -77.64, 6.02 91.20 2.06 49
3 10/22/2017 00:52:58 77.64, 173.36 88.83 10/22/2017 00:52:29 77.64, 173.26 88.82 2.36 29
4 10/22/2017 01:43:40 -77.61, -19.47 91.20 10/22/2017 01:43:30 -77.62, -19.40 91.19 2.15 10
5 10/22/2017 02:34:20 77.63, 147.94 88.84 10/22/2017 02:34:30 77.63, 147.85 88.83 2.17 10
6 10/22/2017 03:25:02 -77.60, -44.89 91.19 10/22/2017 03:25:31 -77.61, -44.81 91.17 2.23 29
7 10/22/2017 04:15:42 77.61, 122.52 88.84 10/22/2017 04:16:31 77.61, 122.43 88.84 2.00 49
8 10/22/2017 05:06:24 -77.58, -70.30 91.19 10/22/2017 05:07:32 -77.59, -70.23 91.16 2.30 68
9 11/01/2017 18:30:15 -77.67, 89.18 87.52 11/01/2017 18:29:01 -77.68, 89.28 87.53 2.51 74
10 11/01/2017 19:20:55 77.69,-103.43 92.51 11/01/2017 19:20:04 77.69,-103.56 92.50 3.33 51
11 11/01/2017 20:11:37 -77.66, 63.76 87.52 11/01/2017 20:11:02 -77.66, 63.86 87.52 2.63 35
12 11/01/2017 21:02:17 77.67,-128.85 92.51 11/01/2017 21:02:05 77.68,-128.98 92.51 3.15 12
13 11/01/2017 21:52:59 -77.64, 38.33 87.52 11/01/2017 21:53:03 -77.64, 38.45 87.51 2.73 4
14 11/01/2017 22:43:39 77.65,-154.27 92.51 11/01/2017 22:44:06 77.66,-154.39 92.52 2.98 27
15 11/01/2017 23:34:21 -77.62, 12.91 87.52 11/01/2017 23:35:04 -77.63, 13.03 87.50 2.83 43
16 11/02/2017 00:25:01 77.63,-179.69 92.51 11/02/2017 00:26:07 77.64,-179.81 92.53 2.83 66




NCC Satellite Simultaneous Nadir Overpasses (SNOs) Prediction Service
